This demonstration page uses our WeatherBlox Daily Observations layout. Learn more.

Left ArrowRight Arrow

31.84235, -102.49876

Hourly Observations for August 10, 2015

Temp ( °F °C ) Dew Point ( °F °C ) Humidity (%) Winds ( mph kmh ) Pressure ( in mb ) Visibility ( mi km ) Precip ( " mm )
12:53 am 00:53 Clear 87 30.6 55 12.8 34 34 S 14 22 29.84 1011 10 16 0.00 0.00
1:53 am 01:53 Clear 83 28.3 57 13.9 41 41 SSW 7 11 29.85 1011 10 16 0.00 0.00
2:53 am 02:53 Clear 82 27.8 57 13.9 42 42 SSW 9 15 29.85 1011 10 16 0.00 0.00
3:53 am 03:53 Clear 80 26.7 59 15 49 49 SSW 7 11 29.84 1011 10 16 0.00 0.00
4:53 am 04:53 Clear 80 26.7 58 14.4 47 47 S 9 15 29.84 1011 10 16 0.00 0.00
5:53 am 05:53 Clear 78 25.6 58 14.4 50 50 SSE 10 17 29.85 1011 10 16 0.00 0.00
6:53 am 06:53 Clear 77 25 59 15 54 54 S 8 13 29.85 1011 10 16 0.00 0.00
7:53 am 07:53 Sunny 78 25.6 61 16.1 56 56 S 10 17 29.87 1012 10 16 0.00 0.00
8:53 am 08:53 Sunny 80 26.7 63 17.2 56 56 SSW 12 19 29.89 1012 10 16 0.00 0.00
9:53 am 09:53 Sunny 84 28.9 63 17.2 49 49 S 12 19 29.90 1013 10 16 0.00 0.00
10:53 am 10:53 Sunny 87 30.6 62 16.7 43 43 S 8 13 29.91 1013 10 16 0.00 0.00
11:53 am 11:53 Sunny 91 32.8 59 15 34 34 S 8 13 29.89 1012 10 16 0.00 0.00
12:53 pm 12:53 Sunny 94 34.4 58 14.4 30 30 ESE 13 20 29.88 1012 10 16 0.00 0.00
1:53 pm 13:53 Sunny 97 36.1 53 11.7 23 23 ESE 12 19 29.87 1011 10 16 0.00 0.00
2:53 pm 14:53 Sunny 99 37.2 51 10.6 20 20 ESE 12 19 29.85 1011 10 16 0.00 0.00
3:53 pm 15:53 Sunny 99 37.2 49 9.4 18 18 SE 15 24 29.82 1010 10 16 0.00 0.00
4:53 pm 16:53 Sunny 100 37.8 47 8.3 16 16 SE 16 26 29.80 1009 10 16 0.00 0.00
5:53 pm 17:53 Sunny 100 37.8 49 9.4 18 18 ESE 12 19 29.81 1009 10 16 0.00 0.00
6:53 pm 18:53 Mostly Sunny 99 37.2 46 7.8 16 16 ESE 12 19 29.79 1009 10 16 0.00 0.00
7:53 pm 19:53 Sunny 97 36.1 45 7.2 17 17 ESE 15 24 29.80 1009 10 16 0.00 0.00
8:53 pm 20:53 Clear 93 33.9 43 6.1 18 18 undefined N/A 29.81 1010 10 16 0.00 0.00
9:53 pm 21:53 Clear 90 32.2 42 5.6 19 19 ESE 10 17 29.84 1011 10 16 0.00 0.00
10:53 pm 22:53 Clear 82 27.8 47 8.3 29 29 E 10 17 29.88 1012 10 16 0.00 0.00
11:53 pm 23:53 Clear 81 27.2 48 8.9 32 32 ESE 8 13 29.90 1012 10 16 0.00 0.00

Powered by AerisWeather